Regional Weather Roundup
Issued by NWS Albany, NY

Home | Current Version | Previous Version | Text Only | Print | Product List | Glossary On
Versions: 1 2 3 4 5 6 7 8 9 10 11 12 13 14 15 16 17 18 19 20 21 22 23 24 25 26 27 28 29 30 31 32 33 34 35 36 37 38 39 40 41 42 43 44 45 46 47 48 49 50
000
ASUS41 KALY 290110
RWRALY

NEW YORK STATE HOURLY WEATHER ROUNDUP
NATIONAL WEATHER SERVICE ALBANY NY
900 PM EDT SAT MAR 28 2015

NOTE: "FAIR" INDICATES FEW OR NO CLOUDS BELOW 12,000 FEET WITH NO
SIGNIFICANT WEATHER AND/OR NO OBSTRUCTIONS TO VISIBILITY.

NYZ032-033-038>043-046>054-057>066-NYZ062>081-290200-
EAST


CITY           SKY/WX    TMP DP  RH WIND       PRES   REMARKS
ALBANY         LGT SNOW  28  14  55 NW17      30.08R WCI  16
GLENS FALLS    CLOUDY    27  10  49 N13       30.08R WCI  16
POUGHKEEPSIE   CLOUDY    30  19  63 N9        30.05R WCI  22
NEWBURGH       LGT SNOW  28  21  74 NW16      30.04  FOG     WCI  17
MONTGOMERY     CLOUDY    28  12  51 NW13      30.04R WCI  17
WHITE PLAINS   LGT SNOW  27  22  81 NW12      30.01R VSB 1   WCI  17
ISLIP          LGT SNOW  30  26  85 NW12      29.99R FOG     WCI  20
NEW YORK CITY  MOCLDY    32  21  64 NW18G24   30.04R WCI  20
CENTRAL PARK   CLOUDY    31  18  58 NW10G21   30.06R WCI  22
$$

NYZ005>009-017-018-044>046-055-056-290200-
CENTRAL


CITY           SKY/WX    TMP DP  RH WIND       PRES   REMARKS
FULTON         CLEAR     20  10  65 CALM      30.16R
SYRACUSE       PTCLDY    22   9  57 W3        30.17R
ROME           CLEAR     18   5  57 NW6       30.17R WCI  10
ELMIRA         CLEAR     20   4  50 W6        30.15R WCI  12
BINGHAMTON     PTCLDY    16   4  59 NW9       30.07R WCI   4
MONTICELLO     CLOUDY    19  10  68 NW17G28   30.04R WCI   4
$$

NYZ026>034-041>043-290200-
NORTH


CITY           SKY/WX    TMP DP  RH WIND       PRES   REMARKS
WATERTOWN      CLEAR     19   9  65 CALM      30.16R
FORT DRUM      NOT AVBL
MASSENA        CLEAR     23   2  40 SW6       30.12R WCI  16
SARANAC LAKE   CLEAR      8   3  80 CALM      30.00R
PLATTSBURGH    CLEAR     23   4  44 W3        30.08R
$$

NYZ001>004-010>016-019>021-290200-
WEST


CITY           SKY/WX    TMP DP  RH WIND       PRES   REMARKS
NIAGARA FALLS  CLEAR     23   8  52 NW6       30.21R WCI  16
BUFFALO        PTCLDY    22  13  68 SW8       30.20R WCI  12
DUNKIRK        CLEAR     24  13  62 W8        30.23R WCI  15
JAMESTOWN      CLEAR     19   7  58 W10       30.15R WCI   8
WELLSVILLE     CLEAR     17   2  51 NW13      30.10R WCI   4
ROCHESTER      CLEAR     25   6  44 W8        30.18R WCI  16
PENN YAN       CLEAR     23   6  48 W7        30.15R WCI  15
$$

             KEY
       WCI = WIND CHILL INDEX
       VSB = VISIBILITY
       HX  = HEAT INDEX
$$


USA.gov is the U.S. government's official web portal to all federal, state and local government web resources and services.